SCP
0 0 0 0 0 0 0 0 0 0 0 0 0 0 0 0 0 0 0 0 0 0
0 0 0 0 0 0 0 0 0 0 0 0 0 0 0 0 0 0 0 0 0 0
0 0 0 0 0 0 0 0 0 0 0 0 0 0 0 0 0 0 0 0 0 0
0 0 0 0 0 0 0 0 0 0 0 0 0 0 0 0 0 0 0 0 0 0
0 0 0 0 0 0 0 0 0 0 0 0 0 0 0 0 0 0 0 0 0 0
0 0 0 0 0 0 0 0 0 0 0 0 0 0 0 0 0 0 0 0 0 0
0 0 0 0 0 0 0 0 0 0 0 0 0 0 0 0 0 0 0 0 0 0
0 0 0 0 0 0 0 0 0 0 0 0 0 0 0 0 0 0 0 0 0 0
0 0 0 0 0 0 0 0 0 0 0 0 0 0 0 0 0 0 0 0 0 0
0 0 0 0 0 0 0 0 0 0 0 0 0 0 0 0 0 0 0 0 0 0
0 0 0 0 0 0 0 0 0 0 0 0 0 0 0 0 0 0 0 0 0 0
0 0 0 0 0 0 0 0 0 0 0 0 0 0 0 0 0 0 0 0 0 0
0 0 0 0 0 0 0 0 0 0 0 0 0 0 0 0 0 0 0 0 0 0
0 0 0 0 0 0 0 0 0 0 0 0 0 0 0 0 0 0 0 0 0 0
Wind_Speed_500mb
66 65 67 65 66 67 67 65 62 63 57 51 48 45 42 40 39 39 39 39 39 40
69 69 71 72 71 73 71 69 65 62 56 51 47 44 42 41 39 39 39 38 39 40
82 79 77 77 79 77 74 69 64 60 54 51 48 45 42 39 37 38 36 36 37 37
76 77 83 82 81 81 76 71 68 60 55 51 46 42 40 37 35 37 36 34 35 36
80 73 77 83 84 80 78 72 66 59 54 48 43 39 37 35 35 36 37 36 39 40
87 80 70 76 80 77 72 69 65 57 49 41 36 35 34 35 37 39 40 40 40 39
92 89 79 63 69 71 57 57 63 49 36 40 42 36 42 41 43 41 40 38 37 35
86 81 83 73 62 68 71 55 57 46 50 38 38 43 44 41 41 40 41 40 40 40
88 79 76 67 57 56 60 59 50 69 43 54 44 47 41 42 43 43 44 44 41 41
84 83 80 70 59 63 66 57 61 54 61 51 50 52 45 44 47 49 48 46 45 46
81 83 81 76 73 73 69 57 60 66 54 52 59 50 45 43 47 50 50 48 47 48
84 82 77 74 74 73 71 66 54 47 48 59 50 39 38 41 46 50 51 49 49 48
81 78 74 69 70 67 63 58 37 45 47 41 39 35 35 38 44 49 50 50 49 46
78 77 71 64 61 51 44 32 37 41 41 40 37 33 31 34 40 46 48 50 50 47
Wind_Direction_500mb
318 309 301 294 287 279 274 272 270 270 270 265 262 261 261 262 263 264 264 265 265 267
317 310 300 294 287 281 276 271 267 265 262 260 259 259 258 260 262 264 267 269 269 269
317 308 303 294 286 281 277 270 264 261 258 256 257 258 260 262 264 266 269 270 271 272
322 313 303 296 290 281 276 268 264 260 257 255 255 256 259 263 266 269 271 271 273 275
326 319 303 295 293 291 280 272 266 261 258 256 257 258 261 267 269 272 274 276 276 279
325 327 315 298 290 288 285 277 270 264 261 265 269 272 275 275 275 274 276 277 278 281
326 323 323 309 286 279 274 273 272 263 265 276 277 282 279 276 276 276 276 279 282 283
325 323 326 321 303 292 277 258 266 257 279 282 280 278 277 273 273 275 278 282 286 289
329 326 326 325 320 301 285 269 257 273 270 266 274 272 273 273 273 274 277 282 285 287
328 327 325 326 319 311 297 276 266 260 261 271 268 270 270 268 273 278 281 283 287 288
327 321 320 322 319 315 305 277 269 271 269 271 271 270 268 272 274 277 280 283 287 288
333 331 325 318 314 312 309 293 279 276 277 278 269 270 276 277 278 281 286 290 290 291
335 333 330 326 318 314 306 296 281 280 273 268 277 282 283 279 279 281 284 288 288 290
335 337 336 331 327 318 313 301 287 283 278 276 278 284 294 289 281 282 287 287 290 293
Wind_Speed_850mb
66 65 67 65 66 67 67 65 62 63 57 51 48 45 42 40 39 39 39 39 39 40
69 69 71 72 71 73 71 69 65 62 56 51 47 44 42 41 39 39 39 38 39 40
82 79 77 77 79 77 74 69 64 60 54 51 48 45 42 39 37 38 36 36 37 37
76 77 83 82 81 81 76 71 68 60 55 51 46 42 40 37 35 37 36 34 35 36
80 73 77 83 84 80 78 72 66 59 54 48 43 39 37 35 35 36 37 36 39 40
87 80 70 76 80 77 72 69 65 57 49 41 36 35 34 35 37 39 40 40 40 39
92 89 79 63 69 71 57 57 63 49 36 40 42 36 42 41 43 41 40 38 37 35
86 81 83 73 62 68 71 55 57 46 50 38 38 43 44 41 41 40 41 40 40 40
88 79 76 67 57 56 60 59 50 69 43 54 44 47 41 42 43 43 44 44 41 41
84 83 80 70 59 63 66 57 61 54 61 51 50 52 45 44 47 49 48 46 45 46
81 83 81 76 73 73 69 57 60 66 54 52 59 50 45 43 47 50 50 48 47 48
84 82 77 74 74 73 71 66 54 47 48 59 50 39 38 41 46 50 51 49 49 48
81 78 74 69 70 67 63 58 37 45 47 41 39 35 35 38 44 49 50 50 49 46
78 77 71 64 61 51 44 32 37 41 41 40 37 33 31 34 40 46 48 50 50 47
Wind_Direction_850mb
318 309 301 294 287 279 274 272 270 270 270 265 262 261 261 262 263 264 264 265 265 267
317 310 300 294 287 281 276 271 267 265 262 260 259 259 258 260 262 264 267 269 269 269
317 308 303 294 286 281 277 270 264 261 258 256 257 258 260 262 264 266 269 270 271 272
322 313 303 296 290 281 276 268 264 260 257 255 255 256 259 263 266 269 271 271 273 275
326 319 303 295 293 291 280 272 266 261 258 256 257 258 261 267 269 272 274 276 276 279
325 327 315 298 290 288 285 277 270 264 261 265 269 272 275 275 275 274 276 277 278 281
326 323 323 309 286 279 274 273 272 263 265 276 277 282 279 276 276 276 276 279 282 283
325 323 326 321 303 292 277 258 266 257 279 282 280 278 277 273 273 275 278 282 286 289
329 326 326 325 320 301 285 269 257 273 270 266 274 272 273 273 273 274 277 282 285 287
328 327 325 326 319 311 297 276 266 260 261 271 268 270 270 268 273 278 281 283 287 288
327 321 320 322 319 315 305 277 269 271 269 271 271 270 268 272 274 277 280 283 287 288
333 331 325 318 314 312 309 293 279 276 277 278 269 270 276 277 278 281 286 290 290 291
335 333 330 326 318 314 306 296 281 280 273 268 277 282 283 279 279 281 284 288 288 290
335 337 336 331 327 318 313 301 287 283 278 276 278 284 294 289 281 282 287 287 290 293